Wind_Speed
26 25 24 22 20 13 9 5 5 5 9 9 7 13 11 10 9 9 11 5 8 9 11 10 11 13 9 6 6 4 6 10 15 10 10 9 8 7 5 7 6 7 7 9
23 24 25 25 23 18 14 10 8 3 10 8 7 13 7 10 12 10 8 10 8 11 10 10 9 9 11 9 8 9 7 9 14 13 13 11 9 8 6 8 9 9 10 13
22 18 23 25 25 22 19 14 12 12 12 8 11 10 8 11 17 16 13 12 13 12 12 11 9 6 8 11 10 9 9 10 14 15 14 11 9 7 7 7 9 10 11 13
20 22 17 27 26 23 18 19 17 13 11 5 8 8 14 10 12 15 12 14 12 14 17 14 10 9 6 8 10 9 8 8 10 11 11 9 8 6 5 5 7 9 10 14
13 19 24 20 28 27 17 19 16 13 11 7 6 7 8 10 11 15 15 9 14 13 17 18 12 9 11 7 7 10 11 10 8 8 9 9 8 6 4 4 6 8 9 8
12 9 14 24 13 16 17 16 12 11 10 8 7 6 10 10 11 10 11 9 12 13 17 21 20 17 13 12 10 11 11 10 10 9 8 8 9 7 6 5 7 8 4 3
9 18 16 12 19 18 17 12 11 8 6 7 6 6 15 18 11 11 10 8 10 14 17 20 23 21 17 11 9 10 12 11 10 10 9 7 7 7 6 8 7 5 3 6
3 5 17 19 22 14 18 16 13 9 8 7 8 5 10 15 10 14 15 13 14 16 18 16 18 20 18 16 11 11 10 10 9 8 10 9 9 9 8 9 6 5 6 8
4 4 7 17 20 20 15 15 15 9 6 4 6 12 17 15 15 16 16 13 11 17 15 16 15 16 16 20 14 11 8 9 8 9 10 10 11 9 10 9 7 6 7 7
7 5 3 8 19 20 15 12 10 8 5 7 5 9 16 17 16 13 14 14 16 15 15 17 18 16 18 18 15 15 12 9 10 11 11 12 11 12 12 10 8 8 9 9
17 12 2 11 13 16 19 13 10 8 7 8 9 12 15 15 19 18 12 13 12 19 19 17 20 19 19 19 18 16 14 13 12 12 14 14 13 13 11 9 7 8 7 8
14 6 10 12 13 12 18 17 17 10 8 8 10 19 20 19 21 20 11 9 6 9 17 14 19 20 21 19 19 19 17 13 13 14 16 17 16 14 11 10 9 9 7 9
7 9 6 5 9 15 16 18 18 17 14 12 14 19 21 19 21 21 22 10 9 8 10 15 15 13 21 23 21 22 22 21 18 16 18 20 18 16 12 11 11 9 9 11
5 8 9 9 8 14 17 16 16 13 7 9 14 19 18 14 23 23 18 17 11 10 8 9 10 17 16 22 23 24 26 21 18 21 23 21 19 16 15 14 11 11 10 12
3 3 7 12 14 15 15 13 15 15 13 9 9 12 8 12 16 19 17 10 13 10 10 10 14 8 13 19 23 23 21 17 17 29 41 32 21 17 17 14 12 13 13 15
5 4 9 10 12 14 17 17 16 11 13 13 14 14 14 12 18 15 10 15 11 5 9 14 14 6 8 12 16 17 19 18 19 23 5 20 29 18 18 15 13 15 15 18
8 9 10 8 8 6 9 17 19 15 12 12 17 17 14 16 18 15 17 10 8 9 10 13 15 10 6 11 17 15 15 21 6 4 7 5 25 20 17 11 13 15 15 15
7 8 11 11 8 6 12 15 18 19 15 16 20 23 18 16 21 22 22 19 11 10 12 12 16 13 14 7 10 13 12 8 8 7 3 10 11 15 12 13 13 11 13 13
10 13 13 12 13 14 13 14 14 17 18 18 22 23 20 19 19 23 27 25 15 13 16 15 17 19 16 19 15 12 21 13 8 7 4 12 9 13 13 10 10 12 13 15
15 13 17 11 11 14 19 20 22 21 19 23 20 18 20 22 23 20 21 25 16 13 15 16 20 18 15 17 18 13 14 23 9 3 11 15 8 8 9 11 10 10 12 16
14 11 12 14 13 13 14 16 18 12 17 18 17 17 18 18 21 20 19 19 15 15 14 14 16 17 17 16 8 9 14 7 7 6 13 16 10 9 10 8 8 10 13 14
12 8 10 10 8 11 16 17 16 17 18 15 16 17 14 10 9 16 18 15 14 12 11 11 11 16 18 16 15 12 7 7 7 9 12 13 9 8 8 8 9 11 14 15
13 16 14 10 12 13 12 13 17 22 22 18 14 15 10 5 6 7 8 11 11 10 7 7 7 12 14 12 10 7 6 6 7 8 13 11 9 9 9 9 9 12 14 16
20 15 17 15 10 11 15 21 22 20 20 21 17 14 11 10 12 15 14 11 3 2 4 7 9 7 6 7 9 9 7 6 7 7 10 11 12 12 10 9 11 13 15 17
15 13 12 16 14 12 8 13 16 19 18 19 15 15 15 17 18 15 13 4 3 5 6 8 9 6 7 9 9 7 8 9 8 10 12 14 14 12 10 11 13 16 19 21
14 15 11 11 9 7 6 10 15 15 16 16 10 15 18 19 17 13 8 3 5 8 10 11 7 6 6 5 6 7 9 8 9 9 13 16 13 13 13 14 18 21 23 23
Wind_Direction
223 225 223 221 242 248 253 275 313 8 15 335 337 337 315 298 301 299 274 231 166 172 177 174 166 171 186 227 260 257 266 248 223 222 201 202 211 225 239 268 280 291 310 318
220 225 227 224 241 244 246 258 280 251 342 318 337 335 296 346 321 293 267 255 202 191 183 166 159 173 178 184 197 214 211 226 219 212 211 210 217 232 244 267 290 307 317 316
220 226 219 224 236 239 244 251 273 298 321 321 307 319 324 316 323 314 273 234 224 201 190 174 164 167 181 183 182 188 185 207 216 220 215 215 224 254 261 273 294 300 304 311
229 220 223 222 232 238 244 248 266 277 316 304 304 293 315 301 327 332 297 249 231 210 204 191 179 173 167 176 184 198 198 207 222 229 241 241 247 256 283 290 283 299 302 308
214 221 222 220 228 233 242 252 254 261 296 291 270 269 285 308 309 316 306 258 229 220 210 204 196 186 198 201 202 205 210 210 220 226 233 243 243 242 242 259 276 296 313 329
204 201 218 229 217 224 222 234 240 264 277 243 237 246 269 315 326 333 310 244 219 220 215 211 205 205 205 209 214 223 216 218 222 226 230 234 238 237 238 250 281 309 324 6
229 225 212 191 199 210 207 207 220 226 222 245 250 242 269 296 285 318 322 230 213 217 216 208 207 213 218 226 233 225 220 217 219 228 235 239 236 222 246 264 290 292 300 334
214 233 225 214 210 206 215 209 221 227 227 245 234 239 283 288 269 307 305 261 230 210 212 211 206 211 220 225 229 222 211 217 219 229 233 231 233 233 251 273 298 290 319 333
220 258 249 221 217 208 213 208 222 232 253 270 246 262 276 287 274 306 302 250 261 238 206 199 208 209 221 226 224 221 214 216 227 235 241 237 237 245 252 268 291 299 318 332
249 263 286 204 197 210 216 219 195 209 201 238 223 242 259 294 293 312 301 283 254 231 211 201 205 205 219 219 221 220 216 222 236 240 242 240 249 246 247 261 284 303 323 342
231 238 250 190 200 199 211 225 225 213 211 250 257 256 272 285 305 307 307 306 234 230 224 215 202 204 215 222 227 225 225 229 243 249 248 250 255 247 252 259 272 291 306 337
220 228 239 239 232 222 225 227 229 226 228 227 253 264 276 278 296 298 305 306 262 244 230 227 209 208 217 222 227 226 228 237 259 263 252 250 255 242 241 247 265 285 303 321
187 217 235 251 239 230 237 237 233 248 251 243 251 272 282 279 293 292 295 299 291 240 222 218 217 214 212 218 224 229 230 230 235 241 241 243 249 246 234 236 255 284 300 309
209 228 233 257 240 218 224 234 223 217 221 258 256 271 267 279 287 278 281 294 297 245 244 233 209 220 237 220 229 237 239 240 239 249 261 244 238 237 231 236 256 282 299 310
40 274 282 276 269 254 231 245 242 229 232 234 279 278 283 279 287 268 276 270 280 255 262 242 223 240 249 235 230 237 238 242 252 287 258 254 215 224 232 239 256 280 300 312
266 273 293 300 273 262 245 248 236 241 235 261 280 290 269 262 279 274 259 274 278 240 246 244 237 248 254 246 239 234 239 256 298 286 25 224 200 202 220 235 253 274 301 311
253 263 271 272 276 259 243 229 233 237 258 289 274 277 288 261 261 248 270 278 263 230 243 245 235 231 229 252 248 251 275 297 292 270 259 215 194 227 214 241 270 277 297 300
258 263 258 255 238 239 244 233 231 244 258 281 296 272 269 272 252 253 271 270 223 206 215 236 242 232 228 244 261 262 272 318 315 322 227 208 217 224 225 232 259 276 283 295
263 249 244 241 241 255 248 238 246 264 277 287 300 282 258 252 255 248 256 255 237 220 200 219 220 232 237 241 261 266 260 315 307 316 273 196 206 222 224 240 253 261 283 307
253 242 241 260 250 252 259 263 265 274 279 281 290 277 261 257 264 257 262 245 238 224 219 223 214 212 235 249 266 294 272 269 257 256 235 201 201 205 217 238 247 269 298 309
252 247 253 256 256 265 273 253 245 235 265 281 275 273 275 269 262 263 261 242 242 243 239 220 216 212 224 242 266 322 291 222 256 213 199 208 210 220 227 238 263 293 302 303
256 263 260 257 240 260 256 260 240 241 250 267 262 257 266 263 269 257 252 223 228 236 231 214 208 220 230 245 265 280 248 219 219 197 205 212 213 224 228 246 273 294 302 307
259 265 257 237 254 264 269 269 265 264 255 258 248 247 234 219 200 206 225 223 215 221 228 246 252 230 238 242 243 262 276 230 208 199 205 210 220 221 231 255 280 296 307 313
259 252 261 276 292 291 279 276 274 282 277 249 234 236 212 183 176 172 170 178 161 328 281 248 227 230 250 264 276 292 289 247 209 198 195 210 218 222 242 260 280 298 308 313
234 239 263 285 307 309 319 300 290 280 275 251 226 223 203 192 190 201 183 224 281 261 252 254 259 249 283 291 284 275 259 237 211 189 206 216 216 230 257 278 296 307 311 316
247 261 269 293 288 280 295 344 323 297 275 255 218 230 215 221 234 247 263 185 223 246 243 235 224 218 259 230 252 228 220 204 197 218 213 209 225 245 267 291 302 303 300 305
Height
3171 3175 3176 3181 3182 3184 3185 3186 3187 3186 3184 3183 3182 3180 3180 3178 3178 3179 3181 3183 3184 3185 3185 3185 3185 3185 3186 3187 3188 3190 3191 3192 3194 3194 3195 3195 3195 3196 3196 3196 3196 3196 3194 3193
3169 3170 3175 3179 3180 3182 3183 3184 3185 3185 3184 3182 3180 3179 3177 3177 3176 3176 3178 3180 3182 3182 3183 3182 3183 3183 3184 3186 3187 3188 3189 3190 3191 3192 3193 3193 3194 3194 3194 3195 3195 3195 3193 3192
3165 3169 3171 3174 3176 3178 3180 3182 3183 3184 3182 3180 3178 3177 3176 3175 3174 3173 3174 3176 3177 3178 3180 3180 3180 3181 3182 3183 3185 3186 3186 3188 3189 3190 3190 3191 3191 3192 3193 3192 3192 3192 3191 3190
3163 3166 3167 3170 3172 3175 3178 3179 3180 3180 3180 3180 3178 3176 3174 3174 3173 3171 3170 3171 3173 3175 3176 3177 3178 3179 3181 3182 3182 3184 3185 3185 3187 3188 3189 3190 3190 3191 3191 3190 3191 3190 3189 3188
3160 3162 3164 3166 3168 3172 3176 3176 3178 3178 3178 3177 3176 3177 3173 3172 3171 3169 3167 3167 3169 3171 3173 3175 3176 3178 3179 3180 3181 3181 3182 3183 3185 3187 3188 3188 3189 3190 3189 3190 3189 3189 3188 3186
3158 3159 3160 3162 3167 3169 3172 3174 3175 3175 3175 3175 3174 3175 3170 3170 3169 3167 3164 3164 3165 3168 3170 3172 3174 3176 3177 3177 3179 3180 3181 3182 3183 3185 3186 3187 3188 3188 3188 3188 3187 3187 3186 3185
3156 3156 3157 3159 3163 3165 3168 3171 3172 3173 3171 3169 3170 3172 3167 3167 3166 3165 3164 3163 3164 3166 3167 3168 3171 3173 3174 3176 3177 3178 3180 3181 3182 3183 3185 3186 3186 3187 3187 3187 3186 3185 3185 3184
3154 3154 3153 3155 3158 3163 3165 3168 3168 3168 3166 3166 3168 3168 3165 3163 3163 3163 3162 3162 3161 3162 3164 3167 3169 3171 3173 3174 3175 3177 3179 3181 3181 3182 3184 3185 3186 3186 3186 3186 3186 3185 3184 3183
3151 3151 3150 3151 3156 3161 3162 3163 3166 3166 3164 3167 3165 3165 3162 3161 3161 3160 3158 3158 3160 3160 3162 3165 3166 3168 3170 3172 3174 3175 3178 3179 3181 3183 3183 3184 3184 3185 3186 3186 3185 3184 3183 3182
3150 3151 3150 3151 3153 3156 3158 3159 3162 3161 3162 3164 3162 3161 3158 3159 3157 3157 3155 3154 3157 3158 3159 3161 3163 3165 3167 3169 3171 3172 3174 3177 3179 3181 3182 3182 3182 3182 3183 3184 3184 3183 3182 3181
3146 3150 3151 3151 3151 3153 3155 3155 3157 3157 3158 3156 3157 3157 3156 3156 3154 3154 3153 3151 3151 3154 3156 3159 3161 3163 3165 3167 3168 3169 3172 3174 3176 3179 3180 3180 3180 3180 3181 3182 3181 3181 3180 3179
3143 3146 3147 3149 3149 3150 3151 3152 3153 3153 3155 3155 3155 3154 3154 3154 3151 3151 3151 3150 3150 3151 3154 3157 3158 3159 3162 3164 3165 3166 3168 3171 3174 3177 3178 3177 3176 3176 3177 3178 3179 3178 3178 3176
3141 3142 3145 3145 3148 3147 3147 3148 3149 3150 3150 3150 3152 3150 3150 3149 3147 3146 3147 3147 3147 3149 3150 3153 3154 3156 3158 3158 3160 3162 3163 3163 3166 3170 3172 3173 3173 3174 3174 3175 3175 3175 3175 3174
3139 3139 3140 3141 3142 3143 3144 3144 3145 3146 3147 3146 3146 3146 3145 3145 3144 3142 3143 3143 3143 3146 3147 3149 3151 3152 3153 3155 3156 3159 3159 3162 3165 3168 3168 3168 3169 3170 3172 3172 3173 3173 3172 3171
3139 3138 3138 3137 3137 3138 3139 3140 3141 3142 3142 3143 3143 3142 3141 3142 3141 3139 3138 3139 3140 3142 3144 3146 3147 3148 3151 3152 3154 3156 3159 3162 3165 3165 3158 3161 3156 3165 3169 3171 3170 3170 3169 3167
3137 3137 3135 3134 3132 3133 3134 3135 3137 3139 3139 3139 3139 3138 3138 3139 3137 3136 3136 3137 3137 3139 3141 3143 3145 3147 3150 3151 3153 3155 3156 3157 3163 3156 3146 3149 3153 3155 3163 3167 3166 3166 3165 3163
3135 3134 3134 3132 3131 3129 3130 3130 3132 3134 3135 3135 3135 3136 3135 3135 3134 3133 3133 3134 3135 3135 3138 3140 3142 3144 3147 3147 3150 3153 3157 3157 3154 3150 3149 3148 3156 3159 3159 3162 3163 3163 3162 3161
3131 3131 3131 3129 3129 3128 3126 3125 3127 3129 3129 3130 3130 3130 3131 3130 3130 3130 3129 3130 3132 3134 3135 3136 3138 3141 3143 3145 3148 3151 3152 3154 3151 3147 3147 3151 3154 3156 3157 3160 3160 3159 3159 3156
3127 3127 3127 3126 3124 3123 3121 3122 3123 3123 3125 3126 3125 3124 3126 3125 3125 3125 3125 3125 3127 3130 3132 3133 3134 3136 3140 3142 3144 3146 3145 3146 3148 3146 3144 3147 3149 3152 3155 3155 3156 3157 3156 3153
3122 3123 3124 3122 3121 3117 3118 3117 3117 3118 3118 3121 3120 3120 3119 3119 3119 3121 3119 3120 3123 3127 3129 3130 3132 3135 3137 3139 3140 3143 3140 3141 3147 3143 3146 3148 3148 3149 3150 3153 3154 3154 3152 3149
3119 3119 3119 3119 3118 3115 3113 3112 3112 3114 3117 3114 3114 3114 3113 3113 3114 3115 3114 3116 3119 3122 3125 3128 3131 3133 3133 3135 3139 3138 3138 3139 3140 3141 3144 3145 3146 3147 3149 3151 3150 3150 3149 3147
3116 3117 3116 3115 3114 3113 3109 3108 3110 3108 3107 3107 3107 3107 3108 3107 3106 3109 3110 3113 3114 3118 3121 3124 3126 3129 3130 3132 3133 3134 3134 3132 3134 3135 3138 3141 3143 3146 3147 3147 3147 3147 3145 3144
3112 3112 3112 3112 3109 3106 3105 3104 3104 3103 3102 3102 3102 3103 3104 3102 3102 3104 3108 3110 3111 3114 3118 3120 3122 3123 3125 3127 3129 3129 3129 3129 3130 3133 3135 3138 3140 3142 3144 3144 3143 3143 3142 3139
3105 3106 3106 3106 3104 3102 3101 3100 3099 3098 3097 3097 3097 3100 3101 3101 3101 3104 3106 3108 3111 3112 3115 3116 3118 3119 3119 3122 3124 3125 3125 3126 3128 3129 3133 3136 3137 3140 3141 3141 3140 3139 3138 3136
3101 3101 3102 3101 3100 3097 3096 3096 3095 3094 3093 3092 3093 3097 3098 3101 3101 3102 3103 3105 3107 3109 3113 3114 3116 3114 3114 3117 3119 3120 3123 3125 3125 3128 3131 3134 3136 3138 3138 3138 3136 3135 3134 3131
3097 3098 3099 3097 3096 3095 3095 3095 3093 3092 3091 3089 3090 3094 3096 3098 3099 3099 3101 3104 3106 3106 3109 3111 3110 3112 3112 3114 3116 3118 3120 3121 3123 3124 3127 3130 3131 3132 3132 3131 3131 3130 3129 3126